Home   Weather   Bad Hersfeld   Past weeks

Flag for Germany Past Weather in Bad Hersfeld, Hesse, Germany — Yesterday and Last 2 Weeks

48 °F

Light rain. Fog.

Feels Like: 48 °F
Forecast: 41 / 52 °F
Wind: 2 mph from Northwest

Location: Fritzlar Airport

Current Time: Oct 25, 2016 at 3:38:32 AM

Latest Report: Oct 25, 2016 at 3:00 AM

Visibility: 2 mi

Pressure: 30.01 "Hg

Humidity: 94%

Dew Point: 46 °F

Location of Bad HersfeldLocation

Past Weather in Bad Hersfeld — Graph


Bad Hersfeld Temperature Yesterday

Maximum temperature yesterday: 48 °F (at 12:20 PM)
Minimum temperature yesterday: 43 °F (at 12:20 AM)
Average temperature yesterday: 46 °F

High & Low Weather Summary for the Past Weeks

High63 °F (Oct 16, 4:20 PM)100% (Oct 10, 2:20 AM)30.27 "Hg (Oct 10, 2:20 AM)
Low32 °F (Oct 10, 2:20 AM)50% (Oct 10, 4:20 PM)29.74 "Hg (Oct 14, 8:20 PM)
Average46 °F87%30.02 "Hg
* Reported Oct 10 2:20 AM — Oct 25 2:20 AM, Bad Hersfeld, Weather by CustomWeather, © 2016

Note: Actual official high and low records may vary slightly from our data, if they occured in-between our weather recording intervals... More about our weather records


Bad Hersfeld Weather History for the Previous 24 Hours

Scroll right to see more
Time TempWeatherWind HumidityBarometerVisibility
2:20 AM
Tue, Oct 25
48 °FLight rain. Fog.1 mph94%30.01 "Hg2 mi
1:20 AM48 °FLight rain. Fog.2 mph94%29.98 "Hg2 mi
12:46 AM48 °FLight rain. Fog.1 mph94%29.98 "Hg3 mi
12:20 AM48 °FLight rain. Fog.2 mph94%29.98 "Hg3 mi
11:20 PM
Mon, Oct 24
48 °FPassing clouds.No wind94%29.98 "Hg4 mi
10:57 PM48 °FPartly cloudy.2 mph94%29.98 "Hg4 mi
10:20 PM48 °FLight rain. Passing clouds.2 mph94%29.95 "Hg4 mi
9:20 PM48 °FLight rain. Partly cloudy.3 mph100%29.95 "Hg4 mi
7:47 PM48 °FPassing clouds.5 mph94%29.95 "Hg4 mi
7:20 PM48 °FPassing clouds.3 mph94%29.95 "Hg5 mi
6:20 PM48 °FLight rain. Fog.3 mph94%29.92 "Hg3 mi
5:20 PM48 °FLight rain. Fog.3 mph94%29.92 "Hg3 mi
4:20 PM48 °FLight rain. Fog.3 mph94%29.92 "Hg2 mi
3:20 PM48 °FLight rain. Fog.6 mph94%29.92 "Hg3 mi
2:45 PM48 °FLight rain. Fog.3 mph94%29.92 "Hg3 mi
2:20 PM48 °FLight rain. Low clouds.3 mph94%29.92 "Hg4 mi
1:47 PM48 °FLight rain. Overcast.6 mph94%29.92 "Hg4 mi
1:20 PM48 °FLight rain. Low clouds.2 mph87%29.95 "Hg4 mi
12:20 PM48 °FLow clouds.2 mph87%29.95 "Hg4 mi
11:20 AM46 °FLight rain. Partly sunny.2 mph87%29.95 "Hg4 mi
10:20 AM45 °FBroken clouds.2 mph93%29.98 "Hg4 mi
9:20 AM45 °FPartly sunny.3 mph87%29.95 "Hg4 mi
8:20 AM43 °FPartly sunny.1 mph93%29.95 "Hg4 mi
7:20 AM43 °FPassing clouds.2 mph93%29.92 "Hg6 mi
6:20 AM43 °FPassing clouds.2 mph93%29.92 "Hg6 mi
5:20 AM43 °FPassing clouds.2 mph93%29.92 "Hg5 mi
4:20 AM43 °FPartly cloudy.1 mph93%29.92 "Hg5 mi
3:20 AM43 °FPassing clouds.1 mph93%29.92 "Hg6 mi
Weather by CustomWeather, © 2016

See weather overviewHow to use our weather pages